| time (UTC) | temp C | wind direction | speed KPH | gust KPH | rain 1hr cm | rain 24hr cm | rain mn cm | humidity % | barometer mb |
| 20260903011520 | 27 | 336 | 0.0 | 1.6 | 0.00 | 0.00 | 0.00 | 74 | 1014.6 |
| 20260903010037 | 28 | 336 | 0.0 | 0.0 | 0.00 | 0.00 | 0.00 | 73 | 1014.5 |
| 20260903004518 | 28 | 336 | 0.0 | 0.0 | 0.00 | 0.00 | 0.00 | 70 | 1014.3 |
| 20260903003018 | 30 | 336 | 0.0 | 1.6 | 0.00 | 0.00 | 0.00 | 67 | 1014.3 |
| 20260903001528 | 30 | 336 | 0.0 | 1.6 | 0.00 | 0.00 | 0.00 | 64 | 1014.1 |
| 20260903000016 | 31 | 290 | 0.0 | 3.2 | 0.00 | 0.00 | 0.00 | 61 | 1014.2 |
| 20260902234526 | 32 | 323 | 0.0 | 4.8 | 0.00 | 0.00 | 0.00 | 59 | 1014.1 |
| 20260902233015 | 32 | 274 | 1.6 | 8.0 | 0.00 | 0.00 | 0.00 | 56 | 1014.1 |
| 20260902231529 | 33 | 294 | 0.0 | 4.8 | 0.00 | 0.00 | 0.00 | 55 | 1014.2 |
| 20260902230013 | 33 | 340 | 0.0 | 9.7 | 0.00 | 0.00 | 0.00 | 55 | 1014.3 |
| 20260902224511 | 33 | 333 | 3.2 | 12.9 | 0.00 | 0.00 | 0.00 | 53 | 1014.3 |
| 20260902223012 | 33 | 317 | 4.8 | 9.7 | 0.00 | 0.00 | 0.00 | 52 | 1014.3 |
| 20260902221505 | 34 | 291 | 4.8 | 14.5 | 0.00 | 0.00 | 0.00 | 51 | 1014.4 |
| 20260902220011 | 34 | 314 | 3.2 | 14.5 | 0.00 | 0.00 | 0.00 | 51 | 1014.4 |
| 20260902214504 | 34 | 323 | 3.2 | 12.9 | 0.00 | 0.00 | 0.00 | 51 | 1014.4 |
| 20260902213005 | 34 | 294 | 3.2 | 11.3 | 0.00 | 0.00 | 0.00 | 52 | 1014.5 |
| 20260902211502 | 33 | 306 | 4.8 | 12.9 | 0.00 | 0.00 | 0.00 | 50 | 1014.5 |
| 20260902210002 | 34 | 322 | 3.2 | 6.4 | 0.00 | 0.00 | 0.00 | 51 | 1014.6 |
| 20260902204600 | 34 | 306 | 3.2 | 8.0 | 0.00 | 0.00 | 0.00 | 51 | 1014.6 |
| 20260902203058 | 34 | 175 | 4.8 | 8.0 | 0.00 | 0.00 | 0.00 | 50 | 1014.7 |
| 20260902201557 | 34 | 286 | 4.8 | 17.7 | 0.00 | 0.00 | 0.00 | 48 | 1014.8 |
| 20260902200056 | 34 | 139 | 3.2 | 14.5 | 0.00 | 0.00 | 0.00 | 48 | 1014.9 |
| 20260902194553 | 34 | 286 | 3.2 | 8.0 | 0.00 | 0.00 | 0.00 | 50 | 1015.0 |
| 20260902193050 | 34 | 311 | 1.6 | 12.9 | 0.00 | 0.00 | 0.00 | 49 | 1015.3 |
| 20260902191550 | 33 | 322 | 1.6 | 14.5 | 0.00 | 0.00 | 0.00 | 50 | 1015.5 |
| 20260902190048 | 34 | 5 | 0.0 | 6.4 | 0.00 | 0.00 | 0.00 | 54 | 1015.6 |
| 20260902184545 | 33 | 360 | 0.0 | 9.7 | 0.00 | 0.00 | 0.00 | 55 | 1015.7 |
| 20260902183044 | 33 | 11 | 3.2 | 12.9 | 0.00 | 0.00 | 0.00 | 53 | 1015.8 |
| 20260902181547 | 33 | 290 | 1.6 | 8.0 | 0.00 | 0.00 | 0.00 | 56 | 1015.9 |
| 20260902180053 | 33 | 292 | 1.6 | 12.9 | 0.00 | 0.00 | 0.00 | 55 | 1016.1 |
| 20260902174540 | 33 | 294 | 4.8 | 11.3 | 0.00 | 0.00 | 0.00 | 53 | 1016.2 |
| 20260902173040 | 33 | 215 | 1.6 | 17.7 | 0.00 | 0.00 | 0.00 | 53 | 1016.4 |
| 20260902171549 | 33 | 309 | 1.6 | 9.7 | 0.00 | 0.00 | 0.00 | 56 | 1016.4 |
| 20260902170038 | 33 | 259 | 3.2 | 12.9 | 0.00 | 0.00 | 0.00 | 55 | 1016.6 |
| 20260902164535 | 33 | 170 | 3.2 | 9.7 | 0.00 | 0.00 | 0.00 | 55 | 1016.6 |
| 20260902163032 | 32 | 192 | 3.2 | 8.0 | 0.00 | 0.00 | 0.00 | 56 | 1016.7 |
| 20260902161539 | 32 | 277 | 1.6 | 8.0 | 0.00 | 0.00 | 0.00 | 59 | 1016.7 |
| 20260902160028 | 32 | 304 | 3.2 | 8.0 | 0.00 | 0.00 | 0.00 | 58 | 1016.9 |
| 20260902154531 | 32 | 220 | 4.8 | 12.9 | 0.00 | 0.00 | 0.00 | 60 | 1017.1 |
| 20260902153026 | 32 | 320 | 3.2 | 8.0 | 0.00 | 0.00 | 0.00 | 62 | 1017.1 |
| 20260902151522 | 31 | 34 | 1.6 | 8.0 | 0.00 | 0.00 | 0.00 | 64 | 1017.2 |
| 20260902150023 | 31 | 273 | 3.2 | 6.4 | 0.00 | 0.00 | 0.00 | 65 | 1017.2 |
| 20260902144516 | 30 | 226 | 0.0 | 8.0 | 0.00 | 0.00 | 0.00 | 69 | 1017.2 |
| 20260902143015 | 30 | 277 | 1.6 | 8.0 | 0.00 | 0.00 | 0.00 | 68 | 1017.2 |
| 20260902141522 | 30 | 309 | 0.0 | 4.8 | 0.00 | 0.00 | 0.00 | 72 | 1017.2 |
| 20260902140011 | 29 | 134 | 0.0 | 3.2 | 0.00 | 0.00 | 0.00 | 76 | 1017.2 |
| 20260902134505 | 28 | 227 | 0.0 | 4.8 | 0.00 | 0.00 | 0.00 | 79 | 1017.2 |
| 20260902133102 | 26 | 222 | 0.0 | 4.8 | 0.00 | 0.00 | 0.00 | 82 | 1017.2 |
| 20260902131558 | 26 | 277 | 0.0 | 3.2 | 0.00 | 0.00 | 0.00 | 84 | 1017.2 |
| 20260902130055 | 25 | 245 | 0.0 | 4.8 | 0.00 | 0.00 | 0.00 | 86 | 1017.2 |
| 20260902124554 | 24 | 274 | 0.0 | 0.0 | 0.00 | 0.00 | 0.00 | 85 | 1017.2 |
| 20260902123151 | 23 | 274 | 0.0 | 1.6 | 0.00 | 0.00 | 0.00 | 85 | 1017.0 |
| 20260902121603 | 22 | 273 | 0.0 | 1.6 | 0.00 | 0.00 | 0.00 | 85 | 1016.9 |
| 20260902120101 | 22 | 273 | 0.0 | 1.6 | 0.00 | 0.00 | 0.00 | 85 | 1017.0 |
| 20260902114607 | 22 | 273 | 0.0 | 1.6 | 0.00 | 0.00 | 0.00 | 85 | 1016.9 |
| 20260902113055 | 22 | 273 | 0.0 | 1.6 | 0.00 | 0.00 | 0.00 | 85 | 1016.7 |
| 20260902111553 | 22 | 273 | 0.0 | 0.0 | 0.00 | 0.00 | 0.00 | 85 | 1016.5 |
| 20260902110047 | 22 | 273 | 0.0 | 1.6 | 0.00 | 0.00 | 0.00 | 85 | 1016.5 |
| 20260902104546 | 22 | 273 | 0.0 | 1.6 | 0.00 | 0.00 | 0.00 | 85 | 1016.5 |
| 20260902103049 | 22 | 273 | 0.0 | 1.6 | 0.00 | 0.00 | 0.00 | 85 | 1016.5 |
| 20260902101541 | 22 | 273 | 0.0 | 0.0 | 0.00 | 0.00 | 0.00 | 85 | 1016.4 |
| 20260902100040 | 22 | 273 | 0.0 | 1.6 | 0.00 | 0.00 | 0.00 | 85 | 1016.4 |
| 20260902094539 | 22 | 273 | 0.0 | 1.6 | 0.00 | 0.00 | 0.00 | 85 | 1016.4 |
| 20260902093038 | 22 | 273 | 0.0 | 1.6 | 0.00 | 0.00 | 0.00 | 85 | 1016.3 |
| 20260902091547 | 22 | 273 | 0.0 | 1.6 | 0.00 | 0.00 | 0.00 | 85 | 1016.3 |
| 20260902090046 | 22 | 273 | 0.0 | 1.6 | 0.00 | 0.00 | 0.00 | 85 | 1016.1 |
| 20260902084533 | 22 | 273 | 0.0 | 1.6 | 0.00 | 0.00 | 0.00 | 86 | 1016.0 |
| 20260902083031 | 22 | 273 | 0.0 | 1.6 | 0.00 | 0.00 | 0.00 | 86 | 1015.8 |
| 20260902081538 | 22 | 273 | 0.0 | 1.6 | 0.00 | 0.00 | 0.00 | 86 | 1015.6 |
| 20260902080031 | 22 | 273 | 0.0 | 0.0 | 0.00 | 0.00 | 0.00 | 86 | 1015.6 |
| 20260902074539 | 22 | 273 | 0.0 | 0.0 | 0.00 | 0.00 | 0.00 | 86 | 1015.6 |
| 20260902073028 | 22 | 273 | 0.0 | 0.0 | 0.00 | 0.00 | 0.00 | 86 | 1015.6 |
| 20260902071528 | 22 | 273 | 0.0 | 0.0 | 0.00 | 0.00 | 0.00 | 86 | 1015.6 |
| 20260902070025 | 22 | 273 | 0.0 | 1.6 | 0.00 | 0.00 | 0.00 | 86 | 1015.6 |
| 20260902064531 | 23 | 273 | 0.0 | 1.6 | 0.00 | 0.00 | 0.00 | 86 | 1015.6 |
| 20260902063024 | 23 | 273 | 0.0 | 0.0 | 0.00 | 0.00 | 0.00 | 86 | 1015.5 |
| 20260902061537 | 23 | 273 | 0.0 | 1.6 | 0.00 | 0.00 | 0.00 | 86 | 1015.5 |
| 20260902060022 | 23 | 273 | 0.0 | 0.0 | 0.00 | 0.00 | 0.00 | 86 | 1015.5 |
| 20260902054534 | 23 | 273 | 0.0 | 0.0 | 0.00 | 0.00 | 0.00 | 85 | 1015.6 |
| 20260902053022 | 23 | 273 | 0.0 | 0.0 | 0.00 | 0.00 | 0.00 | 85 | 1015.6 |
| 20260902051516 | 23 | 273 | 0.0 | 0.0 | 0.00 | 0.00 | 0.00 | 85 | 1015.6 |
| 20260902050016 | 24 | 273 | 0.0 | 0.0 | 0.00 | 0.00 | 0.00 | 85 | 1015.6 |
| 20260902044514 | 24 | 273 | 0.0 | 1.6 | 0.00 | 0.00 | 0.00 | 85 | 1015.6 |
| 20260902043012 | 24 | 273 | 0.0 | 0.0 | 0.00 | 0.00 | 0.00 | 84 | 1015.5 |
| 20260902041511 | 25 | 273 | 0.0 | 0.0 | 0.00 | 0.00 | 0.00 | 84 | 1015.7 |
| 20260902040008 | 25 | 273 | 0.0 | 0.0 | 0.00 | 0.00 | 0.00 | 83 | 1015.7 |
| 20260902034520 | 25 | 273 | 0.0 | 1.6 | 0.00 | 0.00 | 0.00 | 82 | 1015.6 |
| 20260902033008 | 25 | 273 | 0.0 | 1.6 | 0.00 | 0.00 | 0.00 | 82 | 1015.7 |
| 20260902031508 | 25 | 273 | 0.0 | 0.0 | 0.00 | 0.00 | 0.00 | 81 | 1015.6 |
| 20260902030104 | 26 | 273 | 0.0 | 1.6 | 0.00 | 0.00 | 0.00 | 80 | 1015.6 |
| 20260902024503 | 26 | 273 | 0.0 | 1.6 | 0.00 | 0.00 | 0.00 | 79 | 1015.5 |
| 20260902023002 | 26 | 273 | 0.0 | 1.6 | 0.00 | 0.00 | 0.00 | 78 | 1015.5 |
| 20260902021502 | 26 | 273 | 0.0 | 1.6 | 0.00 | 0.00 | 0.00 | 77 | 1015.5 |
| 20260902020006 | 27 | 273 | 0.0 | 0.0 | 0.00 | 0.00 | 0.00 | 76 | 1015.6 |
| 20260902014506 | 27 | 273 | 0.0 | 1.6 | 0.00 | 0.00 | 0.00 | 75 | 1015.5 |
| 20260902013101 | 27 | 273 | 0.0 | 1.6 | 0.00 | 0.00 | 0.00 | 74 | 1015.5 |
| 20260902013001 | 27 | 273 | 0.0 | 1.6 | 0.00 | 0.00 | 0.00 | 74 | 1015.5 |
| 20260902011601 | 28 | 273 | 0.0 | 1.6 | 0.00 | 0.00 | 0.00 | 72 | 1015.3 |